Location: Newark
(30.0333°N, 31.2167°E)
Time: 10:46:10
(UTC+00:00)

Tiros 1 - Pass Details

Date: 27 January 2020
Orbit: 631 x 664 km, 48.4° (Epoch: 25 February)

Event Time Altitude Azimuth Distance (km) Brightness Sun altitude
Rises 08:25:32 0° 219° (SW) 2,905 10.7 35.5°
Reaches altitude 10° 08:27:51 10° 216° (SW) 2,003 10.1 35.8°
Maximum altitude 08:32:24 63° 135° (SE) 707 8.7 36.3°
Drops below altitude 10° 08:37:01 10° 55° (NE) 2,029 9.7 36.7°
Sets 08:39:23 0° 52° (NE) 2,946 10.4 37.0°
